CZ-6A DEB, 56686

Orbit data source: Space-Track

CZ-6A DEB, 56686 is space debris in SSO originally from a launch on Fri, 11 Nov 2022 UTC launched from the Taiyaun Space Center, China (TSC). Debris objects in space refer to the collection of defunct objects orbiting the Earth. Examples of debris include non-operational satellites, rocket bodies, and fragments generated from explosions, collisions, or faulty payload assembly.

Loading next visibility...
Identifier
56686, 2022-151AHN
Orbit
SSO
Country
Flag of CNCN / PRC
Related business
Manufacturer
SAST
Mission
Spacecraft
Bus & Motor
Unknown
Mass
Unknown
Launch date (UTC)
2022-11-11 (3 years ago)
Launch vehicle
Unknown
Launch site
Taiyaun Space Center, China (TSC)
Object type
Payload
Rocket body
Debris
Shape & HBR
Unknown shape, 0.1 m
Radar Cross Section
Small (<0.1 m²)

Expand to show TLE details & history
Last TLE update: 2 weeks ago

TLE from 2 weeks ago
0 CZ-6A DEB
1 56686U 22151AHN 25336.44946360  .00000290  00000-0  18798-3 0  9994
2 56686  98.8454 336.1599 0045318 175.7579 184.3984 14.09756779132377
Epoch: 2025-12-02T10:47Z
TLE epoch observation values (Epoch: 2025-12-02T10:47:13.655Z)
Latitude
-0.00003°
Longitude
102.81856°
Altitude
895.814 km
Speed
7.387 km/s
True Right ascension
22h 24m 38s
True Declination
0° 00' 00"
Sunlit
Object was in daylight at epoch
Visualization orbit readout
Latitude
Unknown
Longitude
Unknown
Altitude
Unknown
Speed
Unknown
Apparent Right ascension
Unknown
Apparent Declination
Unknown
Sunlit
N/A
Visualization observer readout
Local Sidereal Time
13:38:56
Azimuth
Unknown
Elevation
Unknown
Doppler factor
Unknown
Orbital elements
Apogee altitude
890.173 km
Perigee altitude
824.593 km
Semi-major axis
7,235.52 km
Eccentricity
0.00453
Inclination
98.8454°
RAAN
336.1599°
Arg. of periapsis
175.7579°
True anomaly
184.3588°
Mean anomaly
184.3984°
Eccentric anomaly
184.37858°
Mean motion
3.52646 °/min
Orbital period
102.09 mins
BSTAR
0.00018798
Loading maneuver chart data...
Computing Atmospheric mass density...
Loading historical data...
Loading historical data...
Loading historical data...
Loading historical data...
Loading historical data...
Loading historical data...
Loading historical data...

Documentation

Showing up to 5 results
|